This is the latest recevied weather packets stored in our database for station/object KK4WXG. If no packets are shown the sender has not sent any weather packets the latest 10 day(s).
| Time | Temp. | Humidity | Pressure | Rain* | Wind** | Luminosity | Snow |
|---|---|---|---|---|---|---|---|
| 1778191791 | 21.11° C | 33% | 1007.5 hPa | 0 mm | - | 246 W/m² | - |
| 1778191488 | 20.56° C | 36% | 1007.6 hPa | 0 mm | - | 272 W/m² | - |
| 1778191184 | 20.56° C | 33% | 1007.6 hPa | 0 mm | - | 295 W/m² | - |
| 1778190881 | 20.56° C | 33% | 1007.6 hPa | 0 mm | - | 317 W/m² | - |
| 1778190578 | 21.11° C | 32% | 1007.7 hPa | 0 mm | - | 341 W/m² | - |
| 1778190276 | 21.11° C | 35% | 1007.6 hPa | 0 mm | - | 359 W/m² | - |
| 1778189972 | 20° C | 36% | 1007.7 hPa | 0 mm | - | 374 W/m² | - |
| 1778189668 | 20.56° C | 35% | 1007.4 hPa | 0 mm | - | 393 W/m² | - |
| 1778189365 | 20.56° C | 34% | 1007.9 hPa | 0 mm | - | 411 W/m² | - |
| 1778189061 | 19.44° C | 34% | 1007.8 hPa | 0 mm | - | 427 W/m² | - |
| 1778188758 | 20° C | 35% | 1007.8 hPa | 0 mm | - | 449 W/m² | - |
| 1778188454 | 20.56° C | 34% | 1007.8 hPa | 0 mm | - | 464 W/m² | - |
| 1778188152 | 20° C | 37% | 1007.6 hPa | 0 mm | - | 483 W/m² | - |
| 1778187848 | 20.56° C | 34% | 1008 hPa | 0 mm | - | 503 W/m² | - |
| 1778187545 | 20° C | 34% | 1007.7 hPa | 0 mm | - | 523 W/m² | - |
| 1778187242 | 20° C | 35% | 1007.8 hPa | 0 mm | - | 540 W/m² | - |
| 1778186938 | 20° C | 39% | 1007.9 hPa | 0 mm | - | 560 W/m² | - |
| 1778186635 | 19.44° C | 36% | 1008 hPa | 0 mm | - | 576 W/m² | - |
| 1778186333 | 19.44° C | 35% | 1008.1 hPa | 0 mm | - | 590 W/m² | - |
| 1778186030 | 18.89° C | 37% | 1007.9 hPa | 0 mm | - | 605 W/m² | - |
| 1778185727 | 19.44° C | 35% | 1008 hPa | 0 mm | - | 628 W/m² | - |
| 1778185423 | 19.44° C | 40% | 1007.8 hPa | 0 mm | - | 644 W/m² | - |
| 1778185118 | 19.44° C | 38% | 1007.9 hPa | 0 mm | - | 666 W/m² | - |
| 1778184814 | 19.44° C | 39% | 1008.2 hPa | 0 mm | - | 684 W/m² | - |
| 1778184511 | 18.89° C | 36% | 1008 hPa | 0 mm | - | 699 W/m² | - |
* Rain latest hour (hover to see other rain measurements)
** Current wind speed in m/s (hover to see current wind gust speed)